Weather History for KMTJ - August, 2012

Change the Weather History Date:

Monday, August 6, 2012

  Actual Average Record
Temperature  
Mean Temperature 75 °F 73 °F  
Max Temperature 89 °F 88 °F 93 °F (2000)
Min Temperature 60 °F 58 °F 54 °F (1998)
Degree Days  
Heating Degree Days 0 0  
Month to date heating degree days 0 0  
Since 1 June heating degree days 6 39  
Since 1 July heating degree days 0 0  
Cooling Degree Days 10 8  
Month to date cooling degree days 54 48  
Year to date cooling degree days 656 470  
Since 1 June cooling degree days 633 453  
Growing Degree Days 24 (Base 50)    
Moisture  
Dew Point 49 °F    
Average Humidity 44    
Maximum Humidity 65    
Minimum Humidity 22    
Precipitation  
Precipitation 0.00 in 0.04 in 0.45 in (2007)
Month to date precipitation 0.02 0.23  
Year to date precipitation 3.33 6.30  
Sea Level Pressure  
Sea Level Pressure 30.14 in    
Wind  
Wind Speed 8 mph (SSE)    
Max Wind Speed 29 mph    
Max Gust Speed 35 mph    
Visibility 10 miles    
Events Thunderstorm    
T = Trace of Precipitation, MM = Missing Value Source: NWS Daily Summary

Daily Weather History Graph

Daily Weather History Graph

Search for Another Location

Airport or City:

Trip Planner

Search our weather history database for the weather conditions in past years. The results will help you decide how hot, cold, wet, or windy it might be!

Date:

Astronomy

Aug. 06, 2012 Rise Set
Actual Time 6:18 AM MDT 8:15 PM MDT
Civil Twilight 5:49 AM MDT 8:44 PM MDT
Nautical Twilight 5:13 AM MDT 9:19 PM MDT
Astronomical Twilight 4:35 AM MDT 9:57 PM MDT
Moon 10:31 PM MDT (8/6) 11:05 AM MDT (8/6)
Length of Visible Light 14h 55m
Length of Day
13h 57m
Waning Gibbous, 78% of the Moon is Illuminated
Aug 6
Waning Gibbous
Aug 9
Last Quarter
Aug 17
New
Aug 24
First Quarter
Aug 31
Full

Hourly Weather History & Observations

Time (MDT) Temp. Dew Point Humidity Pressure Visibility Wind Dir Wind Speed Gust Speed Precip Events Conditions
12:53 AM 70.0 °F 46.9 °F 44% 30.10 in 10.0 mi SE 4.6 mph - N/A   Clear
1:53 AM 66.9 °F 48.0 °F 51% 30.11 in 10.0 mi South 6.9 mph - N/A   Clear
2:53 AM 64.9 °F 48.9 °F 56% 30.11 in 10.0 mi SE 3.5 mph - N/A   Clear
3:53 AM 63.0 °F 50.0 °F 63% 30.15 in 10.0 mi SSE 4.6 mph - N/A   Clear
4:53 AM 62.1 °F 48.9 °F 62% 30.16 in 10.0 mi ESE 4.6 mph - N/A   Clear
5:53 AM 61.0 °F 48.0 °F 62% 30.18 in 10.0 mi SSE 6.9 mph - N/A   Clear
6:53 AM 62.1 °F 46.9 °F 58% 30.20 in 10.0 mi SE 9.2 mph - N/A   Clear
7:53 AM 68.0 °F 48.0 °F 49% 30.19 in 10.0 mi ESE 8.1 mph - N/A   Clear
8:53 AM 73.0 °F 48.0 °F 41% 30.18 in 10.0 mi ESE 6.9 mph - N/A   Clear
9:53 AM 77.0 °F 48.0 °F 36% 30.17 in 10.0 mi Variable 3.5 mph - N/A   Clear
10:53 AM 81.0 °F 46.9 °F 30% 30.15 in 10.0 mi NNE 4.6 mph - N/A   Clear
11:53 AM 82.9 °F 46.9 °F 28% 30.13 in 10.0 mi WNW 8.1 mph - N/A   Clear
12:53 PM 84.9 °F 48.0 °F 28% 30.10 in 10.0 mi WNW 6.9 mph - N/A   Clear
1:53 PM 88.0 °F 45.0 °F 22% 30.07 in 10.0 mi NW 6.9 mph - N/A   Clear
2:53 PM 88.0 °F 46.0 °F 23% 30.05 in 10.0 mi WNW 10.4 mph - N/A   Clear
3:53 PM 82.9 °F 48.9 °F 31% 30.07 in 10.0 mi NW 16.1 mph 23.0 mph N/A   Clear
4:53 PM 82.9 °F 50.0 °F 32% 30.05 in 10.0 mi West 3.5 mph - N/A   Clear
5:53 PM 84.9 °F 46.9 °F 27% 30.07 in 10.0 mi Calm Calm - N/A   Clear
6:53 PM 75.9 °F 52.0 °F 43% 30.12 in 10.0 mi South 24.2 mph 29.9 mph N/A   Scattered Clouds
7:03 PM 75.2 °F 51.8 °F 44% 30.35 in 10.0 mi South 21.9 mph 33.4 mph N/A Thunderstorm Scattered Clouds
7:18 PM 75.2 °F 53.6 °F 47% 30.36 in 10.0 mi SSE 17.3 mph 26.5 mph N/A   Scattered Clouds
7:53 PM 73.9 °F 52.0 °F 46% 30.14 in 10.0 mi SSE 11.5 mph - N/A   Mostly Cloudy
8:53 PM 73.0 °F 51.1 °F 46% 30.14 in 10.0 mi SE 15.0 mph 25.3 mph N/A   Partly Cloudy
9:53 PM 70.0 °F 54.0 °F 57% 30.15 in 10.0 mi SSE 9.2 mph - N/A   Scattered Clouds
10:53 PM 71.1 °F 51.1 °F 49% 30.12 in 10.0 mi SE 13.8 mph 24.2 mph N/A   Partly Cloudy
11:53 PM 69.1 °F 51.1 °F 53% 30.12 in 10.0 mi ESE 4.6 mph - N/A   Clear